Change the Weather History Date:

Saturday, May 17, 2014

  Actual Average Record
Temperature  
Mean Temperature 46 °F -  
Max Temperature 53 °F 70 °F 84 °F (2004)
Min Temperature 39 °F 53 °F 39 °F (2014)
Degree Days  
Heating Degree Days 19    
Moisture  
Dew Point 40 °F    
Average Humidity 82    
Maximum Humidity 100    
Minimum Humidity 53    
Precipitation  
Precipitation 0.00 in - - ()
Sea Level Pressure  
Sea Level Pressure 30.12 in    
Wind  
Wind Speed 5 mph (WNW)    
Max Wind Speed 16 mph    
Max Gust Speed 21 mph    
Visibility 9 miles    
Events Rain    
Averages and records for this station are not official NWS values.
T = Trace of Precipitation, MM = Missing Value Source: NWS Daily Summary

Daily Weather History Graph

Daily Weather History Graph

Search for Another Location

Airport or City:

Trip Planner

Search our weather history database for the weather conditions in past years. The results will help you decide how hot, cold, wet, or windy it might be!

Date:

Astronomy

May. 17, 2014 Rise Set
Actual Time 6:15 AM EDT 8:42 PM EDT
Civil Twilight 5:45 AM EDT 9:13 PM EDT
Nautical Twilight 5:06 AM EDT 9:51 PM EDT
Astronomical Twilight 4:24 AM EDT 10:34 PM EDT
Moon 11:42 PM EDT (5/17) 8:57 AM EDT (5/17)
Length of Visible Light 15h 28m
Length of Day
14h 26m
Waning Gibbous, 89% of the Moon is Illuminated
May 17
Waning Gibbous
May 21
Last Quarter
May 28
New
Jun 5
First Quarter
Jun 13
Full

Hourly Weather History & Observations

Time (EDT) Temp. Windchill Dew Point Humidity Pressure Visibility Wind Dir Wind Speed Gust Speed Precip Events Conditions
12:15 AM 43.7 °F - 41.9 °F 93% 30.04 in 10.0 mi North - - N/A   Clear
12:35 AM 43.2 °F - 41.9 °F 95% 30.05 in 10.0 mi North - - N/A   Scattered Clouds
12:55 AM 43.2 °F - 41.4 °F 93% 30.05 in 10.0 mi North - - N/A   Scattered Clouds
1:15 AM 42.1 °F - 40.6 °F 95% 30.05 in 10.0 mi North - - N/A   Scattered Clouds
1:35 AM 43.0 °F - 41.5 °F 95% 30.04 in 10.0 mi North - - N/A   Overcast
1:55 AM 42.8 °F - 41.0 °F 93% 30.03 in 10.0 mi North - - N/A   Overcast
2:15 AM 41.0 °F - 40.1 °F 97% 30.04 in 10.0 mi North - - N/A   Scattered Clouds
2:35 AM 40.6 °F - 40.1 °F 98% 30.04 in 10.0 mi North - - N/A   Clear
2:55 AM 39.9 °F - 39.2 °F 97% 30.04 in 10.0 mi North - - N/A   Clear
3:15 AM 39.9 °F - 39.6 °F 99% 30.04 in 7.0 mi North - - N/A   Clear
3:35 AM 39.4 °F - 39.2 °F 99% 30.04 in 7.0 mi North - - N/A   Scattered Clouds
3:55 AM 39.2 °F - 39.2 °F 100% 30.04 in 5.0 mi North - - N/A   Scattered Clouds
4:15 AM 39.4 °F - 39.4 °F 100% 30.04 in 4.0 mi North - - N/A   Clear
4:35 AM 40.3 °F - 40.3 °F 100% 30.04 in 7.0 mi North - - N/A   Mostly Cloudy
4:55 AM 39.9 °F - 39.7 °F 99% 30.04 in 5.0 mi North - - N/A   Scattered Clouds
5:15 AM 39.6 °F - 39.4 °F 99% 30.04 in 5.0 mi North - - N/A   Mostly Cloudy
5:35 AM 41.9 °F - 41.4 °F 98% 30.05 in 7.0 mi North - - N/A   Overcast
5:55 AM 42.8 °F - 41.4 °F 95% 30.06 in 10.0 mi North - - N/A   Overcast
6:20 AM 43.3 °F - 41.9 °F 95% 30.06 in 10.0 mi North - - N/A   Overcast
6:35 AM 43.7 °F - 41.7 °F 93% 30.07 in 10.0 mi North - - N/A   Overcast
6:55 AM 43.7 °F - 41.5 °F 92% 30.07 in 10.0 mi North - - N/A   Overcast
7:15 AM 43.7 °F - 41.9 °F 93% 30.08 in 10.0 mi North - - N/A   Overcast
7:20 AM 44.6 °F - 42.8 °F 93% 30.08 in 10.0 mi Calm Calm - N/A   Overcast
7:50 AM 44.6 °F - 42.8 °F 93% 30.09 in 10.0 mi Calm Calm - N/A   Overcast
8:50 AM 46.4 °F 43.5 °F 42.8 °F 87% 30.11 in 10.0 mi SW 5.8 mph - N/A   Overcast
9:50 AM 46.4 °F 42.4 °F 42.8 °F 87% 30.13 in 10.0 mi WSW 8.1 mph - N/A   Overcast
10:50 AM 51.8 °F - 42.8 °F 71% 30.13 in 10.0 mi SW 9.2 mph - N/A   Overcast
11:55 AM 48.2 °F - 39.2 °F 71% 30.14 in 10.0 mi West 13.8 mph 20.7 mph N/A   Mostly Cloudy
12:06 PM 48.2 °F - 39.2 °F 71% 30.14 in 7.0 mi West 8.1 mph - N/A Rain Light Rain
12:31 PM 50.0 °F - 41.0 °F 71% 30.15 in 10.0 mi NW 9.2 mph - N/A   Overcast
12:50 PM 48.2 °F - 39.2 °F 71% 30.15 in 10.0 mi West 12.7 mph 19.6 mph N/A   Overcast
12:55 PM 46.4 °F 39.8 °F 39.2 °F 76% 30.16 in 3.0 mi WNW 16.1 mph - N/A Rain Light Rain
1:27 PM 48.2 °F - 42.8 °F 82% 30.15 in 10.0 mi North 5.8 mph - N/A   Overcast
1:50 PM 51.8 °F - 44.6 °F 76% 30.15 in 10.0 mi North 5.8 mph - N/A   Mostly Cloudy
2:50 PM 53.6 °F - 42.8 °F 67% 30.15 in 10.0 mi WNW 6.9 mph - N/A   Mostly Cloudy
3:50 PM 53.6 °F - 39.2 °F 58% 30.15 in 10.0 mi West 4.6 mph - N/A   Overcast
6:50 PM 53.6 °F - 37.4 °F 54% 30.17 in 10.0 mi West 3.5 mph - N/A   Overcast
7:40 PM 52.5 °F - 35.6 °F 53% 30.18 in 10.0 mi WNW 5.8 mph - N/A   Overcast
7:55 PM 52.0 °F - 36.7 °F 56% 30.18 in 10.0 mi NW 9.2 mph - N/A   Overcast
8:15 PM 50.9 °F - 37.6 °F 60% 30.19 in 10.0 mi NW 9.2 mph - N/A   Overcast
8:35 PM 50.0 °F - 37.6 °F 62% 30.19 in 10.0 mi WNW 4.6 mph - N/A   Overcast
8:55 PM 49.1 °F - 37.9 °F 65% 30.20 in 10.0 mi WNW 3.5 mph - N/A   Overcast
9:15 PM 49.1 °F - 37.8 °F 65% 30.21 in 10.0 mi Calm Calm - N/A   Overcast
9:35 PM 47.5 °F - 38.7 °F 71% 30.21 in 10.0 mi Calm Calm - N/A   Mostly Cloudy
9:55 PM 48.0 °F - 37.8 °F 68% 30.22 in 10.0 mi Calm Calm - N/A   Scattered Clouds
10:15 PM 47.3 °F - 37.4 °F 68% 30.22 in 10.0 mi Calm Calm - N/A   Clear
10:35 PM 46.2 °F - 37.4 °F 71% 30.23 in 10.0 mi Calm Calm - N/A   Clear
10:55 PM 41.9 °F 39.0 °F 39.0 °F 90% 30.23 in 10.0 mi West 4.6 mph - N/A   Clear
11:15 PM 45.3 °F 43.0 °F 37.4 °F 74% 30.24 in 10.0 mi West 4.6 mph - N/A   Clear
11:35 PM 45.5 °F - 37.4 °F 73% 30.24 in 10.0 mi Calm Calm - N/A   Clear
11:55 PM 43.5 °F 41.9 °F 38.3 °F 82% 30.24 in 10.0 mi West 3.5 mph - N/A   Clear